Previsão horária em Barnaul

Hoje, 29 Outubro, Quinta-feira

Tempo Temperatura Precipitação Vento Pressão Humidade
00:00 -7°C° 0 mm 7 m/s 747 mmHg 82%
01:00 -6°C° 0 mm 6 m/s 747 mmHg 82%
02:00 -6°C° 0 mm 6 m/s 748 mmHg 81%
03:00 -6°C° 0 mm 6 m/s 748 mmHg 80%
04:00 -8°C° 0 mm 6 m/s 749 mmHg 79%
05:00 -8°C° 0 mm 6 m/s 749 mmHg 78%
06:00 -8°C° 0 mm 6 m/s 750 mmHg 78%
07:00 -8°C° 0 mm 6 m/s 750 mmHg 76%
08:00 -8°C° 0 mm 6 m/s 750 mmHg 74%
09:00 -8°C° 0 mm 6 m/s 751 mmHg 72%
10:00 -6°C° 0 mm 6 m/s 751 mmHg 69%
11:00 -6°C° 0 mm 6 m/s 752 mmHg 66%
12:00 -5°C° 0 mm 6 m/s 752 mmHg 63%
13:00 -5°C° 0 mm 6 m/s 752 mmHg 63%
14:00 -4°C° 0 mm 6 m/s 752 mmHg 62%
15:00 -4°C° 0 mm 6 m/s 752 mmHg 61%
16:00 -4°C° 0 mm 6 m/s 753 mmHg 67%
17:00 -5°C° 0 mm 5 m/s 753 mmHg 73%
18:00 -5°C° 0 mm 5 m/s 753 mmHg 80%
19:00 -5°C° 0 mm 5 m/s 753 mmHg 79%
20:00 -5°C° 0 mm 5 m/s 752 mmHg 79%
21:00 -5°C° 0 mm 6 m/s 752 mmHg 79%
22:00 -4°C° 0.1 mm 7 m/s 751 mmHg 83%
23:00 -4°C° 0.1 mm 7 m/s 751 mmHg 88%

Amanhã, 30 Outubro, Sexta-feira

Tempo Temperatura Precipitação Vento Pressão Humidade
00:00 -5°C° 0.1 mm 8 m/s 750 mmHg 93%
01:00 -5°C° 1.1 mm 9 m/s 749 mmHg 93%
02:00 -5°C° 1.1 mm 9 m/s 748 mmHg 94%
03:00 -4°C° 1.1 mm 10 m/s 748 mmHg 95%
04:00 -4°C° 0.4 mm 9 m/s 747 mmHg 93%
05:00 -4°C° 0.4 mm 9 m/s 747 mmHg 92%
06:00 -2°C° 0.4 mm 8 m/s 747 mmHg 90%
07:00 -2°C° 0.3 mm 8 m/s 747 mmHg 92%
08:00 -4°C° 0.3 mm 8 m/s 747 mmHg 94%
09:00 -4°C° 0.3 mm 8 m/s 747 mmHg 96%
10:00 -4°C° 0.6 mm 8 m/s 747 mmHg 96%
11:00 -3°C° 0.6 mm 7 m/s 748 mmHg 97%
12:00 -3°C° 0.6 mm 7 m/s 748 mmHg 97%
13:00 -3°C° 0.2 mm 6 m/s 749 mmHg 97%
14:00 -3°C° 0.2 mm 6 m/s 749 mmHg 97%
15:00 -2°C° 0.2 mm 5 m/s 750 mmHg 97%
16:00 -2°C° 0 mm 5 m/s 751 mmHg 97%
17:00 -2°C° 0 mm 5 m/s 751 mmHg 97%
18:00 -1°C° 0 mm 5 m/s 752 mmHg 97%
19:00 -1°C° 0 mm 4 m/s 752 mmHg 97%
20:00 -1°C° 0 mm 4 m/s 752 mmHg 97%
21:00 -1°C° 0 mm 4 m/s 753 mmHg 97%
22:00 -1°C° 0 mm 4 m/s 753 mmHg 97%
23:00 -1°C° 0 mm 4 m/s 753 mmHg 97%

Depois de amanhã, 31 Outubro, Sábado

Tempo Temperatura Precipitação Vento Pressão Humidade
00:00 -1°C° 0 mm 4 m/s 754 mmHg 97%
01:00 -1°C° 0 mm 4 m/s 754 mmHg 97%
02:00 -1°C° 0 mm 4 m/s 754 mmHg 97%
03:00 -1°C° 0 mm 4 m/s 754 mmHg 97%
04:00 -1°C° 0 mm 4 m/s 754 mmHg 97%
05:00 -1°C° 0 mm 4 m/s 754 mmHg 97%
06:00 -1°C° 0 mm 4 m/s 754 mmHg 96%
07:00 -1°C° 0 mm 4 m/s 754 mmHg 96%
08:00 -2°C° 0 mm 4 m/s 754 mmHg 96%
09:00 -2°C° 0 mm 4 m/s 755 mmHg 97%
10:00 0°C° 0 mm 3 m/s 755 mmHg 96%
11:00 0°C° 0 mm 3 m/s 755 mmHg 95%
12:00 0°C° 0 mm 3 m/s 755 mmHg 93%
13:00 0°C° 0 mm 3 m/s 755 mmHg 95%
14:00 0°C° 0 mm 3 m/s 755 mmHg 96%
15:00 0°C° 0 mm 3 m/s 755 mmHg 97%
16:00 0°C° 0.1 mm 3 m/s 755 mmHg 97%
17:00 0°C° 0.1 mm 3 m/s 755 mmHg 97%
18:00 0°C° 0.1 mm 3 m/s 755 mmHg 98%
19:00 +1°C° 0 mm 2 m/s 755 mmHg 97%
20:00 +1°C° 0 mm 2 m/s 755 mmHg 97%
21:00 +1°C° 0 mm 2 m/s 755 mmHg 96%
22:00 -1°C° 0 mm 2 m/s 755 mmHg 95%
23:00 -1°C° 0 mm 2 m/s 755 mmHg 95%

1 Novembro, Domingo

Tempo Temperatura Precipitação Vento Pressão Humidade
00:00 -2°C° 0 mm 2 m/s 754 mmHg 94%
01:00 -1°C° 0 mm 3 m/s 754 mmHg 93%
02:00 -1°C° 0 mm 3 m/s 754 mmHg 92%
03:00 -1°C° 0 mm 3 m/s 754 mmHg 91%
04:00 -2°C° 0 mm 3 m/s 754 mmHg 91%
05:00 -2°C° 0 mm 3 m/s 754 mmHg 91%
06:00 -2°C° 0 mm 3 m/s 754 mmHg 91%
07:00 -2°C° 0 mm 3 m/s 754 mmHg 90%
08:00 -2°C° 0 mm 3 m/s 754 mmHg 89%
09:00 -2°C° 0 mm 3 m/s 753 mmHg 89%
10:00 -1°C° 0 mm 3 m/s 753 mmHg 87%
11:00 0°C° 0 mm 3 m/s 753 mmHg 85%
12:00 +1°C° 0 mm 3 m/s 753 mmHg 83%
13:00 +1°C° 0 mm 3 m/s 752 mmHg 83%
14:00 +1°C° 0 mm 3 m/s 752 mmHg 84%
15:00 +1°C° 0 mm 3 m/s 752 mmHg 85%
16:00 +1°C° 0 mm 3 m/s 752 mmHg 87%
17:00 0°C° 0 mm 3 m/s 751 mmHg 89%
18:00 0°C° 0 mm 3 m/s 751 mmHg 91%
19:00 -1°C° 0 mm 3 m/s 751 mmHg 91%
20:00 -1°C° 0 mm 3 m/s 751 mmHg 91%
21:00 -1°C° 0 mm 3 m/s 750 mmHg 91%
22:00 -1°C° 0 mm 3 m/s 750 mmHg 91%
23:00 -1°C° 0 mm 3 m/s 750 mmHg 90%

2 Novembro, Segunda-feira

Tempo Temperatura Precipitação Vento Pressão Humidade
00:00 -1°C° 0 mm 3 m/s 749 mmHg 90%
01:00 -1°C° 0 mm 3 m/s 749 mmHg 90%
02:00 -2°C° 0 mm 3 m/s 748 mmHg 89%
03:00 -2°C° 0 mm 3 m/s 748 mmHg 89%
04:00 -2°C° 0 mm 3 m/s 748 mmHg 88%
05:00 -2°C° 0 mm 3 m/s 747 mmHg 87%
06:00 -2°C° 0 mm 3 m/s 747 mmHg 86%
07:00 -1°C° 0 mm 3 m/s 747 mmHg 84%
08:00 -2°C° 0 mm 4 m/s 747 mmHg 81%
09:00 -1°C° 0 mm 4 m/s 747 mmHg 78%
10:00 0°C° 0 mm 4 m/s 746 mmHg 75%
11:00 +1°C° 0 mm 4 m/s 746 mmHg 72%
12:00 +1°C° 0 mm 5 m/s 746 mmHg 69%
13:00 +2°C° 0 mm 5 m/s 745 mmHg 69%
14:00 +3°C° 0 mm 4 m/s 745 mmHg 69%
15:00 +3°C° 0 mm 4 m/s 745 mmHg 70%
16:00 +1°C° 0 mm 4 m/s 745 mmHg 72%
17:00 +1°C° 0 mm 4 m/s 744 mmHg 75%
18:00 0°C° 0 mm 4 m/s 744 mmHg 77%
19:00 0°C° 0 mm 4 m/s 744 mmHg 79%
20:00 0°C° 0 mm 4 m/s 744 mmHg 81%
21:00 -1°C° 0 mm 4 m/s 744 mmHg 83%
22:00 0°C° 0.2 mm 3 m/s 744 mmHg 87%
23:00 0°C° 0.2 mm 3 m/s 745 mmHg 91%

3 Novembro, Terça-feira

Tempo Temperatura Precipitação Vento Pressão Humidade
00:00 0°C° 0.2 mm 3 m/s 745 mmHg 95%
01:00 0°C° 0.1 mm 3 m/s 745 mmHg 95%
02:00 0°C° 0.1 mm 4 m/s 745 mmHg 96%
03:00 0°C° 0.1 mm 4 m/s 745 mmHg 96%
04:00 0°C° 0.1 mm 4 m/s 746 mmHg 96%
05:00 -1°C° 0.1 mm 4 m/s 746 mmHg 96%
06:00 -1°C° 0.1 mm 4 m/s 747 mmHg 96%
07:00 -1°C° 0.1 mm 4 m/s 747 mmHg 94%
08:00 -2°C° 0.1 mm 5 m/s 748 mmHg 92%
09:00 -2°C° 0.1 mm 5 m/s 748 mmHg 90%
10:00 -2°C° 0 mm 4 m/s 749 mmHg 87%
11:00 -2°C° 0 mm 4 m/s 749 mmHg 84%
12:00 -2°C° 0 mm 4 m/s 750 mmHg 82%
13:00 -1°C° 0 mm 3 m/s 750 mmHg 79%
14:00 -1°C° 0 mm 3 m/s 750 mmHg 77%
15:00 -1°C° 0 mm 3 m/s 751 mmHg 74%
16:00 -1°C° 0 mm 3 m/s 751 mmHg 77%
17:00 -2°C° 0 mm 2 m/s 751 mmHg 79%
18:00 -2°C° 0 mm 2 m/s 751 mmHg 82%
19:00 -2°C° 0 mm 2 m/s 752 mmHg 83%
20:00 -2°C° 0 mm 2 m/s 752 mmHg 84%
21:00 -2°C° 0 mm 2 m/s 752 mmHg 85%
22:00 -2°C° 0 mm 2 m/s 752 mmHg 85%
23:00 -3°C° 0 mm 2 m/s 752 mmHg 85%
Mostrar mais